This demonstration page uses our WeatherBlox Daily Observations layout. Learn more.

Left ArrowRight Arrow

41.55636, -103.73856

Hourly Observations for July 9, 2017

Temp ( °F °C ) Dew Point ( °F °C ) Humidity (%) Winds ( mph kmh ) Pressure ( in mb ) Visibility ( mi km ) Precip ( " mm )
12:53 am 00:53 Clear 63 17.2 53 11.7 70 70 undefined N/A 30.00 1016 10 16 0.00 0.00
1:53 am 01:53 Clear 64 17.8 54 12.2 70 70 E 5 7 29.99 1016 10 16 0.00 0.00
2:53 am 02:53 Clear 63 17.2 51 10.6 65 65 E 7 11 29.97 1015 10 16 0.00 0.00
3:53 am 03:53 Clear 62 16.7 51 10.6 67 67 VRB 7 11 29.96 1014 10 16 0.00 0.00
4:53 am 04:53 Clear 64 17.8 50 10 60 60 SE 5 7 29.93 1014 10 16 0.00 0.00
5:53 am 05:53 Sunny 59 15 51 10.6 75 75 N 6 9 29.95 1014 10 16 0.00 0.00
6:53 am 06:53 Sunny 66 18.9 52 11.1 61 61 Calm 29.94 1014 10 16 0.00 0.00
7:53 am 07:53 Sunny 70 21.1 51 10.6 51 51 S 3 6 29.95 1014 10 16 0.00 0.00
8:53 am 08:53 Sunny 74 23.3 52 11.1 46 46 ESE 3 6 29.94 1014 10 16 0.00 0.00
9:53 am 09:53 Sunny 82 27.8 51 10.6 34 34 Calm 29.91 1013 10 16 0.00 0.00
10:53 am 10:53 Sunny 87 30.6 56 13.3 35 35 NW 5 7 29.90 1012 10 16 0.00 0.00
11:53 am 11:53 Sunny 95 35 50 10 22 22 W 6 9 29.86 1011 10 16 0.00 0.00
12:53 pm 12:53 Sunny 98 36.7 40 4.4 13 13 NW 6 9 29.84 1010 10 16 0.00 0.00
1:53 pm 13:53 Sunny 101 38.3 37 2.8 11 11 WNW 9 15 29.81 1009 10 16 0.00 0.00
2:53 pm 14:53 Sunny 101 38.3 33 0.6 9 9 SW 8 13 29.79 1009 10 16 0.00 0.00
3:53 pm 15:53 Sunny 102 38.9 37 2.8 10 10 WNW 10 17 29.77 1008 10 16 0.00 0.00
4:39 pm 16:39 Sunny 97 36.1 46 7.8 17 17 NNE 18 30 29.56 1001 10 16 0.00 0.00
4:53 pm 16:53 Sunny 95 35 44 6.7 17 17 NNE 16 26 29.79 1009 10 16 0.00 0.00
5:53 pm 17:53 Sunny 99 37.2 45 7.2 16 16 NE 6 9 29.77 1008 10 16 0.00 0.00
6:53 pm 18:53 Sunny 93 33.9 48 8.9 21 21 NE 9 15 29.77 1008 10 16 0.00 0.00
7:53 pm 19:53 Sunny 86 30 50 10 29 29 SSW 12 19 29.78 1009 10 16 0.00 0.00
8:53 pm 20:53 Clear 85 29.4 47 8.3 27 27 SE 9 15 29.80 1009 10 16 0.00 0.00
9:53 pm 21:53 Clear 76 24.4 51 10.6 42 42 SE 8 13 29.82 1010 10 16 0.00 0.00
10:53 pm 22:53 Clear 74 23.3 50 10 43 43 E 7 11 29.82 1010 10 16 0.00 0.00
11:53 pm 23:53 Clear 73 22.8 49 9.4 43 43 Calm 29.80 1009 10 16 0.00 0.00

Powered by AerisWeather